Location: Helsinki
(60.1699°N, 24.9384°E)
Time: 16:52:27
(UTC+02:00)

A-11 Canister half - Pass Details

Date: 27 October 2020
Orbit: 1525 x 1684 km, 47.3° (Epoch: 29 November)

Event Time Altitude Azimuth Distance (km) Brightness Sun altitude
Rises 20:48:38 0° 275° (W) 4,700 12.4 -31.0°
Reaches altitude 10° 20:52:30 10° 261° (W) 3,703 11.5 -31.5°
Maximum altitude 20:59:08 23° 215° (SW) 2,827 10.3 -32.2°
Enters shadow 21:01:14 21° 197° (SSW) 2,925 10.3 -32.4°
